Time,TemperatureF,DewpointF,PressureIn,WindDirection,WindDirectionDegrees,WindSpeedMPH,WindSpeedGustMPH,Humidity,HourlyPrecipIn,Conditions,Clouds,dailyrainin,SoftwareType,DateUTC
2015-09-02 00:10:00,69.4,67.3,30.12,West,271,0.0,0.0,93,0.00,,---,0.00,VWS V15.00,2015-09-02 04:10:00,
2015-09-02 00:20:00,69.3,67.2,30.12,West,271,0.0,0.0,93,0.00,,---,0.00,VWS V15.00,2015-09-02 04:20:00,
2015-09-02 00:30:00,69.4,67.6,30.12,West,271,0.0,0.0,94,0.00,,---,0.00,VWS V15.00,2015-09-02 04:30:00,
2015-09-02 00:50:00,69.5,67.4,30.12,West,271,0.0,0.0,93,0.00,,---,0.00,VWS V15.00,2015-09-02 04:50:00,
2015-09-02 01:10:00,68.9,67.1,30.11,West,271,0.0,0.0,94,0.00,,---,0.00,VWS V15.00,2015-09-02 05:10:00,
2015-09-02 01:20:00,68.6,66.8,30.11,West,271,0.0,0.0,94,0.00,,---,0.00,VWS V15.00,2015-09-02 05:20:00,
2015-09-02 01:30:00,69.3,67.5,30.11,West,271,0.0,0.0,94,0.00,,---,0.00,VWS V15.00,2015-09-02 05:30:00,
2015-09-02 01:40:00,68.2,66.4,30.10,West,271,0.0,0.0,94,0.00,,---,0.00,VWS V15.00,2015-09-02 05:40:00,
2015-09-02 01:50:00,68.9,67.1,30.11,West,271,0.0,0.0,94,0.00,,---,0.00,VWS V15.00,2015-09-02 05:50:00,
2015-09-02 02:20:00,67.8,66.0,30.10,West,271,0.0,0.0,94,0.00,,---,0.00,VWS V15.00,2015-09-02 06:20:00,
2015-09-02 02:30:00,67.7,65.9,30.10,West,271,0.0,0.0,94,0.00,,---,0.00,VWS V15.00,2015-09-02 06:30:00,
2015-09-02 02:40:00,67.6,65.8,30.10,West,271,0.0,0.0,94,0.00,,---,0.00,VWS V15.00,2015-09-02 06:40:00,
2015-09-02 02:50:00,68.1,66.3,30.10,West,271,0.0,0.0,94,0.00,,---,0.00,VWS V15.00,2015-09-02 06:50:00,
2015-09-02 03:00:00,67.9,66.1,30.10,West,271,0.0,0.0,94,0.00,,---,0.00,VWS V15.00,2015-09-02 07:00:00,
2015-09-02 03:10:00,66.9,65.1,30.10,West,271,0.0,0.0,94,0.00,,---,0.00,VWS V15.00,2015-09-02 07:10:00,
2015-09-02 03:20:00,66.8,65.0,30.10,West,271,0.0,0.0,94,0.00,,---,0.00,VWS V15.00,2015-09-02 07:20:00,
2015-09-02 03:30:00,66.8,65.0,30.10,West,271,0.0,0.0,94,0.00,,---,0.00,VWS V15.00,2015-09-02 07:30:00,
2015-09-02 03:40:00,67.4,65.6,30.10,West,271,0.0,0.0,94,0.00,,---,0.00,VWS V15.00,2015-09-02 07:40:00,
2015-09-02 04:20:00,66.7,64.9,30.11,West,271,0.0,0.0,94,0.00,,---,0.00,VWS V15.00,2015-09-02 08:20:00,
2015-09-02 04:30:00,66.8,65.3,30.10,West,271,0.0,0.0,95,0.00,,---,0.00,VWS V15.00,2015-09-02 08:30:00,
2015-09-02 04:40:00,66.9,65.4,30.10,West,271,0.0,0.0,95,0.00,,---,0.00,VWS V15.00,2015-09-02 08:40:00,
2015-09-02 04:50:00,66.7,64.9,30.10,West,271,0.0,0.0,94,0.00,,---,0.00,VWS V15.00,2015-09-02 08:50:00,
2015-09-02 05:00:00,66.7,65.2,30.10,West,271,0.0,0.0,95,0.00,,---,0.00,VWS V15.00,2015-09-02 09:00:00,
2015-09-02 05:10:00,66.5,65.0,30.10,West,271,0.0,0.0,95,0.00,,---,0.00,VWS V15.00,2015-09-02 09:10:00,
2015-09-02 05:20:00,66.5,65.0,30.11,West,271,0.0,0.0,95,0.00,,---,0.00,VWS V15.00,2015-09-02 09:20:00,
2015-09-02 05:30:00,66.2,64.7,30.11,West,271,0.0,0.0,95,0.00,,---,0.00,VWS V15.00,2015-09-02 09:30:00,
2015-09-02 05:40:00,66.7,65.2,30.11,West,271,0.0,0.0,95,0.00,,---,0.00,VWS V15.00,2015-09-02 09:40:00,
2015-09-02 05:50:00,66.5,65.0,30.10,West,271,0.0,0.0,95,0.00,,---,0.00,VWS V15.00,2015-09-02 09:50:00,
2015-09-02 06:00:00,66.2,64.7,30.12,West,271,0.0,0.0,95,0.00,,---,0.00,VWS V15.00,2015-09-02 10:00:00,
2015-09-02 06:20:00,65.7,64.2,30.12,West,271,0.0,0.0,95,0.00,,---,0.00,VWS V15.00,2015-09-02 10:20:00,
2015-09-02 06:30:00,66.1,64.6,30.11,West,271,0.0,0.0,95,0.00,,---,0.00,VWS V15.00,2015-09-02 10:30:00,
2015-09-02 06:40:00,66.3,64.8,30.12,West,271,0.0,0.0,95,0.00,,---,0.00,VWS V15.00,2015-09-02 10:40:00,
2015-09-02 06:50:00,65.9,64.4,30.13,West,271,0.0,0.0,95,0.00,,---,0.00,VWS V15.00,2015-09-02 10:50:00,
2015-09-02 07:00:00,65.7,64.2,30.12,West,271,0.0,0.0,95,0.00,,---,0.00,VWS V15.00,2015-09-02 11:00:00,
2015-09-02 07:10:00,66.6,65.1,30.14,West,271,0.0,0.0,95,0.00,,---,0.00,VWS V15.00,2015-09-02 11:10:00,
2015-09-02 07:20:00,66.7,65.2,30.14,West,271,0.0,0.0,95,0.00,,---,0.00,VWS V15.00,2015-09-02 11:20:00,
2015-09-02 07:30:00,65.7,64.2,30.12,West,271,0.0,0.0,95,0.00,,---,0.00,VWS V15.00,2015-09-02 11:30:00,
2015-09-02 07:40:00,67.3,65.8,30.14,West,271,0.0,0.0,95,0.00,,---,0.00,VWS V15.00,2015-09-02 11:40:00,
2015-09-02 07:50:00,66.4,64.9,30.13,West,271,0.0,0.0,95,0.00,,---,0.00,VWS V15.00,2015-09-02 11:50:00,
2015-09-02 08:10:00,70.7,69.2,30.14,West,271,0.0,0.0,95,0.00,,---,0.00,VWS V15.00,2015-09-02 12:10:00,
2015-09-02 08:20:00,66.8,65.3,30.14,West,271,0.0,0.0,95,0.00,,---,0.00,VWS V15.00,2015-09-02 12:20:00,
2015-09-02 08:30:00,71.9,69.8,30.15,West,268,0.0,3.0,93,0.00,,---,0.00,VWS V15.00,2015-09-02 12:30:00,
2015-09-02 08:50:00,69.4,68.2,30.14,West,271,0.0,0.0,96,0.00,,---,0.00,VWS V15.00,2015-09-02 12:50:00,
2015-09-02 09:10:00,71.8,70.0,30.15,West,268,1.0,2.0,94,0.00,,---,0.00,VWS V15.00,2015-09-02 13:10:00,
2015-09-02 09:30:00,72.3,70.2,30.15,West,268,0.0,0.0,93,0.00,,---,0.00,VWS V15.00,2015-09-02 13:30:00,
2015-09-02 09:40:00,79.0,73.0,30.14,WSW,253,0.0,5.0,82,0.00,,---,0.00,VWS V15.00,2015-09-02 13:40:00,
2015-09-02 09:50:00,73.5,71.0,30.14,West,268,1.0,3.0,92,0.00,,---,0.00,VWS V15.00,2015-09-02 13:50:00,
2015-09-02 10:00:00,79.4,73.1,30.14,WSW,253,3.0,5.0,81,0.00,,---,0.00,VWS V15.00,2015-09-02 14:00:00,
2015-09-02 10:10:00,76.1,73.0,30.14,SE,126,1.0,2.0,90,0.00,,---,0.00,VWS V15.00,2015-09-02 14:10:00,
2015-09-02 10:20:00,81.0,72.7,30.14,WSW,257,5.0,5.0,76,0.00,,---,0.00,VWS V15.00,2015-09-02 14:20:00,
2015-09-02 10:30:00,81.5,74.4,30.14,WSW,257,0.0,5.0,79,0.00,,---,0.00,VWS V15.00,2015-09-02 14:30:00,
2015-09-02 10:40:00,82.6,74.7,30.14,West,262,0.0,6.0,77,0.00,,---,0.00,VWS V15.00,2015-09-02 14:40:00,
2015-09-02 10:50:00,83.3,73.3,30.14,West,262,5.0,6.0,72,0.00,,---,0.00,VWS V15.00,2015-09-02 14:50:00,
2015-09-02 11:00:00,80.2,73.1,30.14,WSW,247,4.0,5.0,79,0.00,,---,0.00,VWS V15.00,2015-09-02 15:00:00,
2015-09-02 11:10:00,84.3,73.5,30.13,West,269,1.0,8.0,70,0.00,,---,0.00,VWS V15.00,2015-09-02 15:10:00,
2015-09-02 11:20:00,84.4,74.0,30.12,West,264,4.0,5.0,71,0.00,,---,0.00,VWS V15.00,2015-09-02 15:20:00,
2015-09-02 11:30:00,84.9,74.9,30.12,WNW,285,3.0,7.0,72,0.00,,---,0.00,VWS V15.00,2015-09-02 15:30:00,
2015-09-02 11:40:00,86.1,74.3,30.12,West,273,3.0,4.0,68,0.00,,---,0.00,VWS V15.00,2015-09-02 15:40:00,
2015-09-02 11:50:00,86.4,75.0,30.11,ESE,115,4.0,5.0,69,0.00,,---,0.00,VWS V15.00,2015-09-02 15:50:00,
2015-09-02 12:00:00,86.3,74.9,30.10,West,261,1.0,9.0,69,0.00,,---,0.00,VWS V15.00,2015-09-02 16:00:00,
2015-09-02 12:10:00,85.9,74.6,30.10,East,81,1.0,2.0,69,0.00,,---,0.00,VWS V15.00,2015-09-02 16:10:00,
2015-09-02 12:20:00,85.7,73.5,30.10,WSW,256,3.0,3.0,67,0.00,,---,0.00,VWS V15.00,2015-09-02 16:20:00,
2015-09-02 12:30:00,86.1,76.4,30.09,North,5,1.0,3.0,73,0.00,,---,0.00,VWS V15.00,2015-09-02 16:30:00,
2015-09-02 12:40:00,86.9,74.2,30.09,WNW,284,0.0,6.0,66,0.00,,---,0.00,VWS V15.00,2015-09-02 16:40:00,
2015-09-02 12:50:00,86.8,75.4,30.09,North,355,1.0,4.0,69,0.00,,---,0.00,VWS V15.00,2015-09-02 16:50:00,
2015-09-02 13:00:00,86.1,75.6,30.08,East,79,1.0,3.0,71,0.00,,---,0.00,VWS V15.00,2015-09-02 17:00:00,
2015-09-02 13:10:00,86.0,73.8,30.08,North,351,0.0,2.0,67,0.00,,---,0.00,VWS V15.00,2015-09-02 17:10:00,
2015-09-02 13:20:00,86.8,75.0,30.08,ESE,105,0.0,2.0,68,0.00,,---,0.00,VWS V15.00,2015-09-02 17:20:00,
2015-09-02 13:50:00,88.2,74.0,30.07,West,272,3.0,5.0,63,0.00,,---,0.00,VWS V15.00,2015-09-02 17:50:00,
2015-09-02 14:00:00,88.4,74.2,30.06,WNW,284,1.0,4.0,63,0.00,,---,0.00,VWS V15.00,2015-09-02 18:00:00,
2015-09-02 14:10:00,88.8,72.6,30.06,West,263,5.0,7.0,59,0.00,,---,0.00,VWS V15.00,2015-09-02 18:10:00,
2015-09-02 14:20:00,87.3,75.9,30.07,NE,34,0.0,5.0,69,0.00,,---,0.00,VWS V15.00,2015-09-02 18:20:00,
2015-09-02 14:30:00,87.8,75.5,30.07,SE,124,0.0,6.0,67,0.00,,---,0.00,VWS V15.00,2015-09-02 18:30:00,
2015-09-02 14:40:00,88.5,74.8,30.05,West,275,2.0,6.0,64,0.00,,---,0.00,VWS V15.00,2015-09-02 18:40:00,
2015-09-02 14:50:00,88.5,72.3,30.04,West,271,2.0,8.0,59,0.00,,---,0.00,VWS V15.00,2015-09-02 18:50:00,
2015-09-02 15:10:00,88.0,71.9,30.03,NNW,344,1.0,6.0,59,0.00,,---,0.00,VWS V15.00,2015-09-02 19:10:00,
2015-09-02 15:30:00,87.6,73.9,30.03,West,265,0.0,6.0,64,0.00,,---,0.00,VWS V15.00,2015-09-02 19:30:00,
2015-09-02 15:40:00,87.5,75.6,30.03,NE,44,0.0,4.0,68,0.00,,---,0.00,VWS V15.00,2015-09-02 19:40:00,
2015-09-02 15:50:00,87.9,73.3,30.04,West,259,1.0,6.0,62,0.00,,---,0.00,VWS V15.00,2015-09-02 19:50:00,
2015-09-02 16:10:00,87.8,73.2,30.03,West,264,0.0,6.0,62,0.00,,---,0.00,VWS V15.00,2015-09-02 20:10:00,
2015-09-02 16:20:00,89.4,72.7,30.02,West,267,3.0,7.0,58,0.00,,---,0.00,VWS V15.00,2015-09-02 20:20:00,
2015-09-02 16:30:00,89.8,73.6,30.01,North,349,0.0,5.0,59,0.00,,---,0.00,VWS V15.00,2015-09-02 20:30:00,
2015-09-02 16:40:00,89.6,72.4,30.01,West,260,1.0,8.0,57,0.00,,---,0.00,VWS V15.00,2015-09-02 20:40:00,
2015-09-02 16:50:00,89.0,72.3,30.02,West,261,0.0,6.0,58,0.00,,---,0.00,VWS V15.00,2015-09-02 20:50:00,
2015-09-02 17:00:00,89.5,72.3,30.02,WNW,287,3.0,8.0,57,0.00,,---,0.00,VWS V15.00,2015-09-02 21:00:00,
2015-09-02 17:10:00,89.1,72.9,30.00,NE,51,0.0,2.0,59,0.00,,---,0.00,VWS V15.00,2015-09-02 21:10:00,
2015-09-02 17:20:00,88.9,72.2,30.00,West,261,2.0,6.0,58,0.00,,---,0.00,VWS V15.00,2015-09-02 21:20:00,
2015-09-02 17:30:00,88.8,72.6,30.00,WSW,256,2.0,3.0,59,0.00,,---,0.00,VWS V15.00,2015-09-02 21:30:00,
2015-09-02 17:50:00,89.2,74.5,30.00,North,5,1.0,2.0,62,0.00,,---,0.00,VWS V15.00,2015-09-02 21:50:00,
2015-09-02 18:10:00,87.1,72.0,30.00,West,262,0.0,2.0,61,0.00,,---,0.00,VWS V15.00,2015-09-02 22:10:00,
2015-09-02 18:30:00,88.4,73.7,30.00,West,266,1.0,3.0,62,0.00,,---,0.00,VWS V15.00,2015-09-02 22:30:00,
2015-09-02 18:50:00,87.7,73.1,30.00,West,262,0.0,4.0,62,0.00,,---,0.00,VWS V15.00,2015-09-02 22:50:00,
2015-09-02 19:00:00,83.6,71.9,30.01,West,269,0.0,0.0,68,0.00,,---,0.00,VWS V15.00,2015-09-02 23:00:00,
2015-09-02 19:10:00,86.3,73.2,30.00,West,273,0.0,4.0,65,0.00,,---,0.00,VWS V15.00,2015-09-02 23:10:00,
2015-09-02 19:20:00,85.6,72.5,30.01,West,273,0.0,0.0,65,0.00,,---,0.00,VWS V15.00,2015-09-02 23:20:00,
2015-09-02 19:30:00,84.8,72.2,30.01,West,269,0.0,2.0,66,0.00,,---,0.00,VWS V15.00,2015-09-02 23:30:00,
2015-09-02 19:40:00,84.1,72.0,30.01,West,269,0.0,0.0,67,0.00,,---,0.00,VWS V15.00,2015-09-02 23:40:00,
2015-09-02 20:00:00,83.0,72.2,30.00,West,269,0.0,0.0,70,0.00,,---,0.00,VWS V15.00,2015-09-03 00:00:00,
2015-09-02 20:10:00,82.3,72.4,30.00,West,269,0.0,0.0,72,0.00,,---,0.00,VWS V15.00,2015-09-03 00:10:00,
2015-09-02 20:30:00,80.6,72.3,30.01,West,269,0.0,0.0,76,0.00,,---,0.00,VWS V15.00,2015-09-03 00:30:00,
2015-09-02 20:40:00,79.5,72.4,30.01,West,269,0.0,0.0,79,0.00,,---,0.00,VWS V15.00,2015-09-03 00:40:00,
2015-09-02 20:50:00,78.6,72.3,30.01,West,269,0.0,0.0,81,0.00,,---,0.00,VWS V15.00,2015-09-03 00:50:00,
2015-09-02 21:10:00,78.1,71.8,30.02,West,268,0.0,0.0,81,0.00,,---,0.00,VWS V15.00,2015-09-03 01:10:00,
2015-09-02 21:20:00,77.9,72.0,30.02,West,268,0.0,0.0,82,0.00,,---,0.00,VWS V15.00,2015-09-03 01:20:00,
2015-09-02 21:40:00,76.1,71.6,30.02,West,269,0.0,0.0,86,0.00,,---,0.00,VWS V15.00,2015-09-03 01:40:00,
2015-09-02 21:50:00,75.6,71.5,30.03,West,269,0.0,0.0,87,0.00,,---,0.00,VWS V15.00,2015-09-03 01:50:00,
2015-09-02 22:00:00,74.0,70.6,30.03,West,269,0.0,0.0,89,0.00,,---,0.00,VWS V15.00,2015-09-03 02:00:00,
2015-09-02 22:10:00,75.1,71.3,30.03,West,269,0.0,1.0,88,0.00,,---,0.00,VWS V15.00,2015-09-03 02:10:00,
2015-09-02 22:20:00,75.2,71.1,30.03,West,269,0.0,0.0,87,0.00,,---,0.00,VWS V15.00,2015-09-03 02:20:00,
2015-09-02 22:40:00,72.9,70.1,30.04,West,269,0.0,0.0,91,0.00,,---,0.00,VWS V15.00,2015-09-03 02:40:00,
2015-09-02 22:50:00,72.9,70.1,30.03,West,269,0.0,0.0,91,0.00,,---,0.00,VWS V15.00,2015-09-03 02:50:00,
2015-09-02 23:00:00,73.6,70.5,30.04,West,269,0.0,1.0,90,0.00,,---,0.00,VWS V15.00,2015-09-03 03:00:00,
2015-09-02 23:10:00,73.3,70.2,30.03,West,269,0.0,0.0,90,0.00,,---,0.00,VWS V15.00,2015-09-03 03:10:00,
2015-09-02 23:20:00,73.1,70.0,30.04,West,268,0.0,0.0,90,0.00,,---,0.00,VWS V15.00,2015-09-03 03:20:00,
2015-09-02 23:50:00,72.6,69.8,30.03,West,269,0.0,0.0,91,0.00,,---,0.00,VWS V15.00,2015-09-03 03:50:00,